Webb City, MO

12:32 AM CDT on August 26, 2016 (GMT -0500)
Joplin Regional

Weather History for KJLN - October, 2013

Change the Weather History Date:

Thursday, October 24, 2013

  Actual Average Record
Temperature  
Mean Temperature 43 °F 58 °F  
Max Temperature 52 °F 69 °F 88 °F (2003)
Min Temperature 33 °F 46 °F 24 °F (1999)
Degree Days  
Heating Degree Days 22 8  
Month to date heating degree days 197 143  
Since 1 July heating degree days 208 185  
Cooling Degree Days 0 1  
Month to date cooling degree days 51 42  
Year to date cooling degree days 1566 1684  
Moisture  
Dew Point 32 °F    
Average Humidity 64    
Maximum Humidity 92    
Minimum Humidity 35    
Precipitation  
Precipitation 0.00 in 0.12 in 0.91 in (1961)
Month to date precipitation 1.52 3.14  
Year to date precipitation 36.98 39.06  
Sea Level Pressure  
Sea Level Pressure 30.32 in    
Wind  
Wind Speed 7 mph (NNE)    
Max Wind Speed 16 mph    
Max Gust Speed 22 mph    
Visibility 10 miles    
Events      
T = Trace of Precipitation, MM = Missing Value Source: NWS Daily Summary

Daily Weather History Graph

Daily Weather History Graph

Search for Another Location

Airport or City:

Trip Planner

Search our weather history database for the weather conditions in past years. The results will help you decide how hot, cold, wet, or windy it might be!

Date:

Astronomy

Oct. 24, 2013 Rise Set
Actual Time 7:34 AM CDT 6:29 PM CDT
Civil Twilight 7:08 AM CDT 6:55 PM CDT
Nautical Twilight 6:37 AM CDT 7:26 PM CDT
Astronomical Twilight 6:07 AM CDT 7:56 PM CDT
Moon 10:57 PM CDT (10/24) 12:33 PM CDT (10/24)
Length of Visible Light 11h 47m
Length of Day
10h 54m
Waning Gibbous, 71% of the Moon is Illuminated
Oct 24
Waning Gibbous
Oct 26
Last Quarter
Nov 3
New
Nov 9
First Quarter
Nov 17
Full

Hourly Weather History & Observations

Time (CDT) Temp. Windchill Dew Point Humidity Pressure Visibility Wind Dir Wind Speed Gust Speed Precip Events Conditions
12:53 AM 46.0 °F 44.8 °F 37.0 °F 71% 30.11 in 10.0 mi ESE 3.5 mph - N/A   Clear
1:53 AM 42.1 °F 39.2 °F 37.0 °F 82% 30.13 in 10.0 mi NE 4.6 mph - N/A   Clear
2:53 AM 42.1 °F 37.7 °F 37.0 °F 82% 30.15 in 10.0 mi NNE 6.9 mph - N/A   Clear
3:53 AM 41.0 °F 38.0 °F 37.0 °F 86% 30.17 in 10.0 mi NNE 4.6 mph - N/A   Clear
4:53 AM 37.9 °F 34.4 °F 36.0 °F 93% 30.20 in 10.0 mi North 4.6 mph - N/A   Clear
5:53 AM 39.0 °F 33.4 °F 35.1 °F 86% 30.25 in 10.0 mi North 8.1 mph - N/A   Clear
6:53 AM 39.0 °F 34.0 °F 34.0 °F 82% 30.29 in 10.0 mi North 6.9 mph - N/A   Clear
7:53 AM 37.9 °F 31.5 °F 34.0 °F 86% 30.31 in 10.0 mi NNE 9.2 mph - N/A   Clear
8:53 AM 41.0 °F 34.7 °F 34.0 °F 76% 30.34 in 10.0 mi NE 10.4 mph - N/A   Clear
9:53 AM 44.1 °F 38.6 °F 32.0 °F 63% 30.37 in 10.0 mi NNE 10.4 mph 21.9 mph 0.00 in   Clear
10:53 AM 46.0 °F 39.6 °F 30.9 °F 56% 30.38 in 10.0 mi NNE 15.0 mph 19.6 mph 0.00 in   Partly Cloudy
11:53 AM 48.9 °F - 33.1 °F 54% 30.38 in 10.0 mi North 15.0 mph 20.7 mph N/A   Mostly Cloudy
12:53 PM 50.0 °F - 33.1 °F 52% 30.39 in 10.0 mi North 13.8 mph 20.7 mph N/A   Scattered Clouds
1:53 PM 51.1 °F - 30.9 °F 46% 30.38 in 10.0 mi North 12.7 mph 17.3 mph N/A   Clear
3:53 PM 52.0 °F - 27.0 °F 38% 30.34 in 10.0 mi NNE 8.1 mph - N/A   Clear
4:53 PM 51.1 °F - 25.0 °F 36% 30.35 in 10.0 mi North 10.4 mph - N/A   Clear
5:53 PM 48.9 °F - 26.1 °F 41% 30.36 in 10.0 mi NNE 6.9 mph - N/A   Clear
6:53 PM 44.1 °F 41.5 °F 26.1 °F 49% 30.38 in 10.0 mi NNE 4.6 mph - N/A   Clear
7:53 PM 42.1 °F - 27.0 °F 55% 30.40 in 10.0 mi Calm Calm - N/A   Clear
8:53 PM 37.9 °F - 30.9 °F 76% 30.41 in 10.0 mi Calm Calm - N/A   Clear
9:53 PM 36.0 °F - 30.9 °F 82% 30.43 in 10.0 mi Calm Calm - N/A   Clear
10:53 PM 35.1 °F 32.2 °F 30.9 °F 85% 30.44 in 10.0 mi ENE 3.5 mph - N/A   Clear
11:53 PM 34.0 °F 31.0 °F 30.9 °F 89% 30.45 in 10.0 mi ENE 3.5 mph - N/A   Clear